Location: Aufkirchen
(47.9603°N, 11.3653°E)
Time: 16:55:22
(UTC+01:00)

Transit 4A - Pass Details

Date: 03 December 2020
Orbit: 864 x 980 km, 66.8° (Epoch: 26 January)

Event Time Altitude Azimuth Distance (km) Brightness Sun altitude
Rises 09:29:21 0° 261° (W) 3,658 10.7 11.7°
Reaches altitude 10° 09:32:25 10° 275° (W) 2,724 10.0 12.0°
Maximum altitude 09:37:33 25° 329° (NNW) 1,884 9.1 12.5°
Drops below altitude 10° 09:42:43 10° 22° (NNE) 2,739 10.1 13.0°
Sets 09:45:49 0° 36° (NE) 3,683 10.8 13.3°
